EZS32GV LSGG-LFKJ

Flight info

Callsign EZS32GV
Flight time N/A
Altitude 35000
Route MEDAM DCT LAPRI DCT VAMTU DCT LONSU
Aircraft A320/M-SDE3FGHIRWY/LB1

Departure

Time N/A
Airport Geneva International Airport (LSGG)

Arrival

Time 2026-04-08 14:43
Airport Ajaccio Napoléon Bonaparte airport (LFKJ)
Time Latitude Longitude Altitude Speed Heading
2026-04-08 14:06 45.38428 6.82083 28466 ft 453 kts 145°
2026-04-08 14:07 45.35835 6.84658 28788 ft 455 kts 145°
2026-04-08 14:07 45.33261 6.87209 29121 ft 457 kts 145°
2026-04-08 14:07 45.30648 6.89801 29443 ft 459 kts 145°
2026-04-08 14:07 45.28031 6.92406 29765 ft 461 kts 145°
2026-04-08 14:08 45.25315 6.94873 30055 ft 462 kts 151°
2026-04-08 14:08 45.22484 6.97069 30319 ft 465 kts 151°
2026-04-08 14:08 45.19637 6.99278 30542 ft 467 kts 151°
2026-04-08 14:08 45.16814 7.01472 30819 ft 468 kts 151°
2026-04-08 14:09 45.13957 7.03690 31172 ft 467 kts 151°
2026-04-08 14:09 45.11111 7.05897 31567 ft 465 kts 152°
2026-04-08 14:09 45.08267 7.08098 31926 ft 464 kts 152°
2026-04-08 14:09 45.05421 7.10300 32225 ft 465 kts 152°
2026-04-08 14:10 45.02585 7.12490 32584 ft 463 kts 152°
2026-04-08 14:10 44.99757 7.14671 32904 ft 462 kts 152°
2026-04-08 14:10 44.96873 7.16662 33239 ft 461 kts 159°
2026-04-08 14:10 44.93893 7.18346 33588 ft 460 kts 159°
2026-04-08 14:11 44.90966 7.19994 33919 ft 459 kts 159°
2026-04-08 14:11 44.88001 7.21665 34220 ft 459 kts 159°
2026-04-08 14:11 44.85033 7.23339 34503 ft 458 kts 159°
2026-04-08 14:11 44.82072 7.25006 34806 ft 457 kts 159°
2026-04-08 14:12 44.79116 7.26670 35074 ft 457 kts 159°
2026-04-08 14:12 44.76153 7.28338 35169 ft 457 kts 159°
2026-04-08 14:12 44.71232 7.31100 35163 ft 458 kts 159°
2026-04-08 14:13 44.64358 7.34946 35162 ft 456 kts 159°
2026-04-08 14:13 44.59981 7.37385 35163 ft 457 kts 159°
2026-04-08 14:14 44.51136 7.42315 35165 ft 456 kts 159°
2026-04-08 14:15 44.45218 7.45604 35164 ft 456 kts 159°
2026-04-08 14:15 44.39353 7.48863 35170 ft 456 kts 159°
2026-04-08 14:16 44.33443 7.52127 35151 ft 456 kts 159°
2026-04-08 14:16 44.27533 7.55382 35174 ft 456 kts 159°
2026-04-08 14:17 44.21628 7.58637 35188 ft 455 kts 159°
2026-04-08 14:17 44.15759 7.61858 35174 ft 455 kts 161°
2026-04-08 14:18 44.09634 7.64005 35186 ft 454 kts 169°
2026-04-08 14:18 44.03449 7.65838 35191 ft 454 kts 169°
2026-04-08 14:19 43.97252 7.67675 35184 ft 455 kts 169°
2026-04-08 14:19 43.91057 7.69511 35194 ft 455 kts 168°
2026-04-08 14:20 43.84906 7.71325 35208 ft 454 kts 168°
2026-04-08 14:20 43.78720 7.73149 35209 ft 454 kts 168°
2026-04-08 14:21 43.72540 7.74973 35214 ft 454 kts 168°
2026-04-08 14:21 43.69449 7.75885 35018 ft 453 kts 168°
2026-04-08 14:21 43.66399 7.76781 34783 ft 452 kts 168°
2026-04-08 14:21 43.63276 7.77693 34539 ft 453 kts 168°
2026-04-08 14:22 43.60195 7.78593 34300 ft 453 kts 168°
2026-04-08 14:22 43.57144 7.79482 34049 ft 454 kts 168°
2026-04-08 14:22 43.54047 7.80384 33785 ft 454 kts 168°
2026-04-08 14:22 43.50951 7.81283 33504 ft 455 kts 168°
2026-04-08 14:23 43.47852 7.82183 33230 ft 455 kts 168°
2026-04-08 14:23 43.44736 7.83087 32968 ft 456 kts 168°
2026-04-08 14:23 43.41666 7.83979 32706 ft 456 kts 168°
2026-04-08 14:23 43.38549 7.84884 32445 ft 457 kts 168°
2026-04-08 14:24 43.35433 7.85791 32189 ft 458 kts 167°
2026-04-08 14:24 43.32311 7.86700 31934 ft 458 kts 167°
2026-04-08 14:24 43.29184 7.87608 31678 ft 459 kts 167°
2026-04-08 14:24 43.26064 7.88512 31423 ft 458 kts 167°
2026-04-08 14:25 43.22947 7.89413 31179 ft 457 kts 167°
2026-04-08 14:25 43.19840 7.90306 30930 ft 455 kts 167°
2026-04-08 14:25 43.16750 7.91198 30671 ft 453 kts 167°
2026-04-08 14:25 43.13678 7.92088 30031 ft 449 kts 167°
2026-04-08 14:26 43.10635 7.92970 29380 ft 445 kts 167°
2026-04-08 14:26 43.07626 7.93838 28762 ft 440 kts 167°
2026-04-08 14:26 43.04644 7.94692 28153 ft 436 kts 167°
2026-04-08 14:26 43.01695 7.95534 27552 ft 432 kts 167°
2026-04-08 14:27 42.98761 7.96368 26960 ft 428 kts 167°
2026-04-08 14:27 42.95855 7.97198 26374 ft 424 kts 167°
2026-04-08 14:27 42.93009 7.98017 25793 ft 421 kts 167°
2026-04-08 14:27 42.90150 7.98839 25215 ft 418 kts 167°
2026-04-08 14:28 42.87315 7.99652 24659 ft 415 kts 167°
2026-04-08 14:28 42.84497 8.00453 24123 ft 412 kts 167°
2026-04-08 14:28 42.81703 8.01245 23546 ft 409 kts 166°
2026-04-08 14:28 42.78949 8.02090 23041 ft 402 kts 162°
2026-04-08 14:29 42.76359 8.03433 22550 ft 395 kts 152°
2026-04-08 14:29 42.73967 8.05210 22100 ft 389 kts 149°
2026-04-08 14:29 42.71626 8.07000 21644 ft 384 kts 149°
2026-04-08 14:29 42.69306 8.08767 21195 ft 380 kts 149°
2026-04-08 14:30 42.67004 8.10510 20752 ft 377 kts 149°
2026-04-08 14:30 42.64724 8.12234 20287 ft 374 kts 149°
2026-04-08 14:30 42.62459 8.13948 19846 ft 371 kts 149°
2026-04-08 14:30 42.60194 8.15660 19354 ft 377 kts 149°
2026-04-08 14:31 42.57892 8.17398 18812 ft 380 kts 149°
2026-04-08 14:31 42.55578 8.19141 18238 ft 380 kts 149°
2026-04-08 14:31 42.53271 8.20886 17623 ft 380 kts 149°
2026-04-08 14:31 42.50957 8.22638 16996 ft 381 kts 150°
2026-04-08 14:32 42.48636 8.24386 16385 ft 381 kts 150°
2026-04-08 14:32 42.46311 8.26130 15776 ft 382 kts 150°
2026-04-08 14:32 42.43986 8.27874 15189 ft 382 kts 150°
2026-04-08 14:32 42.41662 8.29617 14610 ft 382 kts 150°
2026-04-08 14:33 42.39341 8.31359 14041 ft 381 kts 150°
2026-04-08 14:33 42.37025 8.33098 13402 ft 380 kts 150°
2026-04-08 14:33 42.34718 8.34829 12797 ft 379 kts 150°
2026-04-08 14:33 42.32416 8.36551 12180 ft 377 kts 151°
2026-04-08 14:34 42.30125 8.38261 11591 ft 375 kts 151°
2026-04-08 14:34 42.27849 8.39957 11009 ft 373 kts 151°
2026-04-08 14:34 42.25612 8.41625 10432 ft 370 kts 151°
2026-04-08 14:34 42.23360 8.43308 9834 ft 367 kts 152°
2026-04-08 14:35 42.21047 8.44725 9145 ft 365 kts 157°
2026-04-08 14:35 42.18871 8.46444 8298 ft 356 kts 144°
2026-04-08 14:35 42.16961 8.48439 7474 ft 345 kts 141°
2026-04-08 14:35 42.15148 8.50480 6837 ft 332 kts 140°
2026-04-08 14:36 42.13442 8.52431 6464 ft 311 kts 140°
2026-04-08 14:36 42.11833 8.54245 6079 ft 294 kts 141°
2026-04-08 14:36 42.10282 8.55952 5602 ft 283 kts 141°
2026-04-08 14:36 42.08771 8.57583 5042 ft 275 kts 142°
2026-04-08 14:37 42.07270 8.59178 4394 ft 272 kts 142°
2026-04-08 14:37 42.05809 8.60723 3919 ft 263 kts 142°
2026-04-08 14:37 42.04390 8.62222 3484 ft 253 kts 142°
2026-04-08 14:37 42.03070 8.63616 3357 ft 233 kts 142°
2026-04-08 14:38 42.01866 8.64968 3167 ft 220 kts 134°
2026-04-08 14:38 42.00998 8.66607 3020 ft 212 kts 116°
2026-04-08 14:38 42.00536 8.68453 2972 ft 203 kts 99°
2026-04-08 14:38 42.00320 8.70207 2989 ft 178 kts 100°
2026-04-08 14:39 42.00117 8.71771 2974 ft 166 kts 100°
2026-04-08 14:39 41.99919 8.73272 3010 ft 160 kts 100°
2026-04-08 14:39 41.99722 8.74743 2739 ft 159 kts 101°
2026-04-08 14:39 41.99534 8.76170 2444 ft 153 kts 101°
2026-04-08 14:40 41.99349 8.77583 2191 ft 152 kts 102°
2026-04-08 14:40 41.99173 8.78977 1893 ft 150 kts 101°
2026-04-08 14:40 41.98953 8.80341 1672 ft 148 kts 112°
2026-04-08 14:40 41.98495 8.81533 1403 ft 144 kts 130°
2026-04-08 14:41 41.97754 8.82454 1212 ft 147 kts 152°
2026-04-08 14:41 41.96776 8.82815 1033 ft 145 kts 183°
2026-04-08 14:41 41.95826 8.82451 766 ft 145 kts 211°
2026-04-08 14:41 41.94965 8.81792 557 ft 141 kts 207°
2026-04-08 14:42 41.94072 8.81282 335 ft 135 kts 204°
2026-04-08 14:42 41.93227 8.80765 115 ft 131 kts 206°
2026-04-08 14:42 41.92447 8.80270 21 ft 110 kts 205°
2026-04-08 14:42 41.91907 8.79941 19 ft 66 kts 204°
2026-04-08 14:43 41.91537 8.79712 19 ft 53 kts 204°
2026-04-08 14:43 41.91293 8.79561 22 ft 29 kts 206°
2026-04-08 14:43 41.91246 8.79511 23 ft 27 kts 233°
2026-04-08 14:44 41.91233 8.79450 23 ft 13 kts 276°
2026-04-08 14:44 41.91292 8.79399 23 ft 10 kts 340°
2026-04-08 14:44 41.91341 8.79374 26 ft 4 kts 335°
2026-04-08 14:45 41.91379 8.79347 29 ft 13 kts 334°
2026-04-08 14:45 41.91482 8.79346 26 ft 15 kts 21°
2026-04-08 14:45 41.91575 8.79403 28 ft 14 kts 25°
2026-04-08 14:45 41.91659 8.79457 32 ft 13 kts 25°
2026-04-08 14:46 41.91738 8.79506 28 ft 12 kts 25°
2026-04-08 14:46 41.91810 8.79541 26 ft 10 kts 356°
2026-04-08 14:46 41.91840 8.79510 29 ft 1 kts 333°
2026-04-08 14:46 41.91843 8.79509 29 ft 0 kts 338°
2026-04-08 14:47 41.91844 8.79508 29 ft 0 kts 340°